Hourly Data Report for May 27, 2012

All times are specified in Local Standard Time (LST). Add 1 hour to adjust for Daylight Saving Time where and when it is observed.

CHURCHILL A
MANITOBA

58°44'21.000" N
94°03'59.000" W
29.30 m
5060605
71618
YYQ

Related Data

No related data is available for this station

Download Data

Hourly Data (May 2012)
Hourly Data Report for May 27, 2012
Temp Definition
°C
Dew Point Temp Definition
°C
Rel Hum Definition
%
Wind Dir Definition
10's deg

Wind Spd Definition
km/h
Visibility Definition
km
Stn Press Definition
kPa
Hmdx Definition


Wind Chill Definition


Weather Definition


TIME
00:00 Legend Double Dagger 1.7 -0.9 83 19 4 10.0 101.91     Mainly Clear
01:00 Legend Double Dagger 0.8 -1.3 86 21 13 10.0 101.91     LegendNANA
02:00 Legend Double Dagger 0.1 -1.5 89 22 14 10.0 101.92     LegendNANA
03:00 Legend Double Dagger -0.1 -1.5 90 23 15 10.0 101.94   -5 Mainly Clear
04:00 Legend Double Dagger -0.8 -1.8 93 23 12 10.0 101.97   -5 LegendNANA
05:00 Legend Double Dagger 0.1 -1.1 92 25 11 10.0 102.00     LegendNANA
06:00 Legend Double Dagger 2.0 -0.3 85 26 10 10.0 102.04     Clear
07:00 Legend Double Dagger 4.7 0.3 73   0 10.0 102.06     LegendNANA
08:00 Legend Double Dagger 6.9 0.4 63 34 14 10.0 102.08     LegendNANA
09:00 Legend Double Dagger 8.2 -0.3 55 36 13 10.0 102.13     Clear
10:00 Legend Double Dagger 9.5 -1.8 45 34 15 10.0 102.15     LegendNANA
11:00 Legend Double Dagger 6.5 1.6 71 35 24 10.0 102.18     LegendNANA
12:00 Legend Double Dagger 5.7 2.0 77 0 22 10.0 102.16     Mainly Clear
13:00 Legend Double Dagger 4.0 1.2 82 2 24 10.0 102.14     LegendNANA
14:00 Legend Double Dagger 3.8 1.2 83 2 25 10.0 102.14     LegendNANA
15:00 Legend Double Dagger 3.7 1.1 83 2 22 10.0 102.14     Mainly Clear
16:00 Legend Double Dagger 3.0 0.7 85 2 23 10.0 102.15     LegendNANA
17:00 Legend Double Dagger 2.4 0.1 85 3 20 10.0 102.14     LegendNANA
18:00 Legend Double Dagger 1.8 0.0 88 4 20 10.0 102.14     Mainly Clear
19:00 Legend Double Dagger 1.2 -0.3 90 3 21 10.0 102.12     LegendNANA
20:00 Legend Double Dagger 0.3 -0.9 92 3 18 10.0 102.10     LegendNANA
21:00 Legend Double Dagger -0.5 -1.4 94 2 21 10.0 102.11   -6 Mainly Clear
22:00 Legend Double Dagger -1.3 -1.7 97 3 22 10.0 102.10   -7 LegendNANA
23:00 Legend Double Dagger -1.7 -2.1 97 4 19 10.0 102.09   -7 LegendNANA

Notes on Data Quality.

Legend

  • E = Estimated
  • M = Missing
  • NA = Not Available
  • ‡ = Partner data that is not subject to review by the National Climate Archives
Date modified: